| time (UTC) | temp F | wind direction | speed MPH | gust MPH | rain 1hr in | rain 24hr in | rain mn in | humidity % | barometer mb |
| 20260503202439 | 50 | 261 | 6.0 | 17.0 | 0.00 | 0.03 | 0.03 | 84 | 1004.6 |
| 20260503195439 | 49 | 0 | 5.0 | 14.0 | 0.01 | 0.03 | 0.03 | 90 | 1004.7 |
| 20260503192441 | 48 | 261 | 3.0 | 11.0 | 0.03 | 0.03 | 0.03 | 92 | 1005.3 |
| 20260503185438 | 47 | 261 | 2.0 | 10.0 | 0.02 | 0.02 | 0.02 | 91 | 1006.2 |
| 20260503182438 | 46 | 261 | 3.0 | 9.0 | 0.00 | 0.00 | 0.00 | 88 | 1006.5 |
| 20260503175432 | 51 | 197 | 2.0 | 18.0 | 0.00 | 0.00 | 0.00 | 72 | 1006.8 |
| 20260503175208 | 52 | 261 | 4.0 | 13.0 | 0.00 | 0.00 | 0.00 | 68 | 1006.7 |
| 20260503072427 | 36 | 261 | 2.0 | 6.0 | 0.00 | 0.00 | 0.00 | 83 | 1010.2 |
| 20260503053809 | 34 | 177 | 3.0 | 8.0 | 0.00 | 0.00 | 0.00 | 81 | 1010.9 |
| 20260503050828 | 34 | 130 | 3.0 | 5.0 | 0.00 | 0.00 | 0.00 | 82 | 1011.3 |
| 20260503042415 | 33 | 133 | 2.0 | 4.0 | 0.00 | 0.00 | 0.00 | 84 | 1011.9 |
| 20260503040804 | 34 | 261 | 2.0 | 3.0 | 0.00 | 0.00 | 0.00 | 85 | 1012.1 |
| 20260503033754 | 35 | 261 | 2.0 | 3.0 | 0.00 | 0.00 | 0.00 | 83 | 1012.4 |
| 20260503025414 | 36 | 261 | 1.0 | 2.0 | 0.00 | 0.00 | 0.00 | 80 | 1012.6 |
| 20260503022414 | 37 | 247 | 1.0 | 2.0 | 0.00 | 0.00 | 0.00 | 76 | 1012.9 |
| 20260503015414 | 38 | 249 | 1.0 | 2.0 | 0.00 | 0.00 | 0.00 | 73 | 1012.8 |
| 20260503012414 | 40 | 249 | 1.0 | 2.0 | 0.00 | 0.00 | 0.00 | 69 | 1012.8 |
| 20260503005416 | 43 | 261 | 0.0 | 2.0 | 0.00 | 0.00 | 0.00 | 65 | 1012.7 |
| 20260503002412 | 44 | 261 | 0.0 | 2.0 | 0.00 | 0.00 | 0.00 | 66 | 1012.6 |
| 20260502235409 | 46 | 261 | 0.0 | 2.0 | 0.00 | 0.00 | 0.00 | 59 | 1012.6 |
| 20260502232410 | 47 | 249 | 0.0 | 3.0 | 0.00 | 0.00 | 0.00 | 55 | 1012.7 |
| 20260502225408 | 48 | 261 | 0.0 | 3.0 | 0.00 | 0.00 | 0.00 | 54 | 1012.9 |
| 20260502222407 | 46 | 261 | 1.0 | 3.0 | 0.00 | 0.00 | 0.00 | 59 | 1013.1 |
| 20260502215407 | 45 | 261 | 0.0 | 3.0 | 0.00 | 0.00 | 0.00 | 62 | 1013.2 |
| 20260502212405 | 43 | 296 | 1.0 | 3.0 | 0.00 | 0.00 | 0.00 | 64 | 1013.3 |
| 20260502210747 | 44 | 276 | 1.0 | 5.0 | 0.00 | 0.00 | 0.00 | 71 | 1013.6 |